[[{"header":{"parameterUnit":"m.s-1","parameterCategory":1,"la1":30.2991,"la2":30.254,"lo1":-89.0895,"lo2":-89.0444,"dy":0.0017,"dx":0.0017,"nx":28,"ny":28,"refTime":"2026-03-04T09:00:00:Z","depth":0,"parameterNumber":2,"parameterNumberName":"U-component_of_WINDS"},"data":[0,0,0,0,0,0,0,0,0,0,0,0,0,0,0,0,0,0,0,0,0,0,0,0,0,0,0,0,0,0,0,0,0,0,0,0,0,0,0,0,0,0,0,0,0,0,0,0,0,0,0,0,0,0,0,0,0,0,-4.4734,-4.4735,0,-4.4812,-4.4813,-4.4813,-4.4735,-4.4732,-4.4729,-4.4726,-4.4805,-4.481,-4.4814,0,0,0,0,0,0,0,0,0,0,0,0,0,-4.4519,-4.4523,-4.4734,-4.4735,-4.4736,-4.4812,-4.4813,-4.4814,-4.4736,-4.4732,-4.4728,-4.4725,-4.4803,-4.4809,-4.4815,0,0,0,0,0,0,0,0,0,0,0,0,0,-4.4606,-4.4525,-4.4734,-4.4706,-4.4704,-4.4811,-4.4813,-4.4814,-4.4736,-4.4732,-4.4727,-4.4723,-4.4801,-4.4808,-4.4816,-4.4954,0,0,-4.4838,-4.4842,0,0,0,0,0,0,0,0,-4.4601,-4.4614,-4.4709,-4.4708,-4.4707,-4.4759,-4.4766,-4.4861,-4.4738,-4.4724,-4.4726,-4.4721,-4.4793,-4.4801,-4.4826,-4.4957,-4.4961,-4.4839,-4.4844,-4.4847,-4.4849,0,0,0,0,0,0,0,-4.4595,-4.461,-4.4765,-4.4711,-4.4709,-4.469,-4.4697,-4.4783,-4.4784,-4.4725,-4.472,-4.473,-4.4791,-4.4819,-4.4827,-4.4962,-4.4839,-4.4845,-4.485,-4.4853,-4.5212,-4.5217,0,0,0,0,0,0,-4.4592,-4.4606,-4.4762,-4.4767,-4.4642,-4.4698,-4.4706,-4.4747,-4.4782,-4.4783,-4.4734,-4.4726,-4.4808,-4.4818,-4.4829,-4.4993,-4.4847,-4.4854,-4.4858,-4.5207,-4.5213,-4.5218,0,0,0,0,0,0,-4.4588,-4.4607,-4.4759,-4.4685,-4.4703,-4.4706,-4.4753,-4.4751,-4.4778,-4.4789,-4.4789,-4.4761,-4.4805,-4.4819,-4.4924,-4.4995,-4.4857,-4.4864,-4.5201,-4.5209,-4.5216,-4.5322,0,0,0,0,0,0,-4.4582,-4.4606,-4.4658,-4.4687,-4.4707,-4.4852,-4.4757,-4.4756,-4.4791,-4.4781,-4.4815,-4.4816,-4.4802,-4.4913,-4.4931,-4.5002,-4.487,-4.5194,-4.5204,-4.5213,-4.5312,-4.5332,-4.535,0,0,0,0,0,-4.4575,-4.4684,-4.4661,-4.468,-4.4772,-4.4856,-4.4868,-4.485,-4.4797,-4.4849,-4.4857,-4.4815,-4.4985,-4.4924,-4.4944,-4.5019,-4.519,-4.5201,-4.5213,-4.5304,-4.5328,-4.5349,0,0,0,0,0,0,-4.4663,-4.4687,-4.4662,-4.4784,-4.4819,-4.4843,-4.4908,-4.4877,-4.4927,-4.4916,-4.4893,-4.4901,-4.5012,-4.5026,-4.4958,-4.5155,-4.5078,-4.5094,-4.5141,-4.5165,-4.5183,-4.5176,-4.4876,0,0,0,0,0,-4.4697,-4.4763,-4.4781,-4.4887,-4.4906,-4.4905,-4.494,-4.4924,-4.4959,-4.4973,-4.4988,-4.5024,-4.5085,-4.5126,-4.5183,-4.5315,-4.5321,-4.5376,-4.5395,-4.541,-4.5424,-4.5495,-4.552,-4.5256,-4.5256,-4.5256,0,0,-4.4766,-4.4788,-4.4831,-4.4905,-4.493,-4.4999,-4.4917,-4.4993,-4.5045,-4.4985,-4.5084,-4.5098,-4.5136,-4.5255,-4.5308,-4.527,-4.5499,-4.5425,-4.5437,-4.5442,-4.5509,-4.5534,-4.5557,-4.5264,-4.5262,-4.5261,0,0,-4.4929,-4.4952,-4.5043,-4.5071,-4.511,-4.5109,-4.5132,-4.5161,-4.5168,-4.5268,-4.5225,-4.5286,-4.5392,-4.5421,-4.545,-4.5627,-4.559,-4.5647,-4.5744,-4.5814,-4.5835,-4.5853,-4.5916,-4.5938,-4.5661,-4.5661,-4.5661,0,-4.501,-4.5112,-4.5094,-4.5174,-4.5208,-4.5159,-4.5251,-4.5279,-4.5335,-4.536,-4.5317,-4.5451,-4.5473,-4.5598,-4.5642,-4.5667,-4.5692,-4.5642,-4.5833,-4.5851,-4.5868,-4.5928,-4.5951,-4.5667,-4.5667,-4.5666,-4.5665,0,-4.5211,-4.5283,-4.5352,-4.5408,-4.5451,-4.5537,-4.5532,-4.5577,-4.5558,-4.5562,-4.5666,-4.5691,-4.5753,-4.5782,-4.5764,-4.5906,-4.5881,-4.5837,-4.5759,-4.59,-4.5956,-4.5978,-4.5677,-4.5674,-4.5672,-4.5671,0,0,-4.5427,-4.5475,-4.55,-4.5526,-4.5567,-4.5623,-4.5708,-4.5769,-4.5808,-4.585,-4.592,-4.6013,-4.5972,-4.6005,-4.5991,-4.6052,-4.6191,-4.6,-4.6,-4.6034,-4.6349,-4.6381,-4.6407,-4.6168,-4.6172,-4.6176,-4.6345,0,-4.559,-4.5736,-4.5724,-4.5862,-4.5929,-4.5885,-4.5959,-4.5993,-4.6,-4.6058,-4.6065,-4.6131,-4.6073,-4.6093,-4.6152,-4.6162,-4.6254,-4.615,-4.6233,-4.6236,-4.6222,-4.6436,-4.647,-4.6628,-4.6367,-4.6371,-4.6373,0,-4.5798,-4.5848,-4.5994,-4.6027,-4.6055,-4.6121,-4.6177,-4.6234,-4.6272,-4.6273,-4.6311,-4.6287,-4.6373,-4.6296,-4.6414,-4.6343,-4.6377,-4.6388,-4.6393,-4.6398,-4.6311,-4.6446,-4.6678,-4.6702,-4.6407,-4.6405,-4.6402,0,-4.594,-4.6044,-4.6145,-4.6169,-4.621,-4.6258,-4.6278,-4.6312,-4.635,-4.64,-4.6424,-4.6483,-4.6515,-4.6562,-4.6555,-4.6499,-4.6675,-4.6597,-4.6678,-4.6678,-4.6714,-4.6712,-4.6954,-4.674,-4.6739,-4.6739,-4.6738,0,-4.6122,-4.6212,-4.6209,-4.6271,-4.6372,-4.6358,-4.6458,-4.6472,-4.6504,-4.6568,-4.6534,-4.6595,-4.6583,-4.6644,-4.6639,-4.6738,-4.6753,-4.6756,-4.6753,-4.6757,-4.6757,-4.6777,-4.6765,-4.6745,-4.6744,-4.6743,-4.6742,0,-4.6296,-4.6298,-4.6404,-4.6436,-4.6447,-4.652,-4.6547,-4.6605,-4.6611,-4.6693,-4.6711,-4.672,-4.679,-4.6789,-4.6868,-4.6865,-4.6986,-4.6972,-4.6973,-4.6969,-4.7049,-4.7041,-4.7311,-4.7346,-4.7111,-4.7114,-4.7116,0,-4.641,-4.6479,-4.6519,-4.656,-4.6583,-4.665,-4.6689,-4.6679,-4.6722,-4.6772,-4.6825,-4.6893,-4.6946,-4.7061,-4.7074,-4.7135,-4.7121,-4.7212,-4.713,-4.7133,-4.7121,-4.7116,-4.7123,-4.7227,-4.7229,-4.7232,-4.7233,0,-4.6613,-4.6612,-4.667,-4.673,-4.6778,-4.6825,-4.6867,-4.6903,-4.6898,-4.6948,-4.702,-4.7061,-4.7144,-4.7212,-4.7271,-4.7291,-4.7262,-4.726,-4.7281,-4.7285,-4.7283,-4.7284,-4.7015,-4.7253,-4.7251,-4.7249,-4.7248,-4.7247,-4.676,-4.6819,-4.6858,-4.6924,-4.6956,-4.6997,-4.7054,-4.7068,-4.7128,-4.7195,-4.7186,-4.7267,-4.7305,-4.7383,-4.7409,-4.7472,-4.744,-4.7471,-4.7479,-4.7487,-4.7495,-4.7275,-4.7483,-4.7483,-4.7482,-4.7482,-4.7481,0,-4.696,-4.6983,-4.7045,-4.7106,-4.716,-4.7129,-4.7176,-4.7222,-4.7293,-4.7332,-4.7386,-4.747,-4.7536,-4.7557,-4.7621,-4.7667,-4.7656,-4.7684,-4.768,-4.7685,-4.752,-4.7495,-4.7693,-4.7693,-4.7693,-4.7693,-4.7693,-4.7693,-4.707,-4.7169,-4.7173,-4.7288,-4.7311,-4.739,-4.7419,-4.7457,-4.7489,-4.7584,-4.7639,-4.7652,-4.7684,-4.7751,-4.7811,-4.7815,-4.7839,-4.7874,-4.7872,-4.7718,-4.7696,-4.7676,-4.7651,-4.7879,-4.788,-4.8031,-4.8032,-4.8033]},{"header":{"parameterUnit":"m.s-1","parameterCategory":1,"la1":30.2991,"la2":30.254,"lo1":-89.0895,"lo2":-89.0444,"dy":0.0017,"dx":0.0017,"nx":28,"ny":28,"refTime":"2026-03-04T09:00:00:Z","depth":0,"parameterNumber":3,"parameterNumberName":"V-component_of_WINDS"},"data":[0,0,0,0,0,0,0,0,0,0,0,0,0,0,0,0,0,0,0,0,0,0,0,0,0,0,0,0,0,0,0,0,0,0,0,0,0,0,0,0,0,0,0,0,0,0,0,0,0,0,0,0,0,0,0,0,0,0,0.7491,0.7491,0,0.7514,0.7514,0.7514,0.7532,0.7532,0.7532,0.7533,0.7553,0.7553,0.7553,0,0,0,0,0,0,0,0,0,0,0,0,0,0.7461,0.7462,0.7491,0.7491,0.7491,0.7514,0.7514,0.7514,0.7532,0.7532,0.7532,0.7533,0.7553,0.7553,0.7553,0,0,0,0,0,0,0,0,0,0,0,0,0,0.7478,0.7462,0.7491,0.7503,0.7504,0.7514,0.7514,0.7514,0.7532,0.7532,0.7532,0.7533,0.7552,0.7553,0.7553,0.7552,0,0,0.7555,0.7555,0,0,0,0,0,0,0,0,0.7477,0.7479,0.7501,0.7502,0.7504,0.752,0.7511,0.7527,0.7532,0.7521,0.7533,0.7533,0.7541,0.7543,0.7547,0.7552,0.7553,0.7555,0.7556,0.7556,0.7556,0,0,0,0,0,0,0,0.7476,0.7478,0.75,0.7501,0.7503,0.7507,0.751,0.7514,0.7529,0.7522,0.7524,0.7526,0.7542,0.7546,0.7547,0.7554,0.7555,0.7556,0.7556,0.7556,0.7562,0.7562,0,0,0,0,0,0,0.7473,0.7477,0.7499,0.7501,0.7491,0.7507,0.751,0.7515,0.753,0.7532,0.7526,0.7527,0.7545,0.7546,0.7548,0.7548,0.7556,0.7556,0.7557,0.7562,0.7562,0.7562,0,0,0,0,0,0,0.7473,0.7475,0.7498,0.7489,0.7493,0.7508,0.7512,0.7515,0.7519,0.7532,0.7535,0.7527,0.7545,0.7547,0.7551,0.7549,0.7557,0.7557,0.7562,0.7562,0.7562,0.7548,0,0,0,0,0,0,0.7472,0.7475,0.7474,0.7489,0.7493,0.7501,0.7512,0.7515,0.752,0.7522,0.7534,0.7536,0.7546,0.755,0.7552,0.755,0.7557,0.7562,0.7562,0.7562,0.7548,0.7547,0.7546,0,0,0,0,0,0.747,0.7468,0.7474,0.7476,0.7493,0.7501,0.7503,0.7515,0.752,0.7519,0.7529,0.7536,0.7549,0.7551,0.7552,0.7551,0.7563,0.7562,0.7562,0.7549,0.7547,0.7546,0,0,0,0,0,0,0.745,0.747,0.7477,0.7479,0.7489,0.7504,0.7504,0.7512,0.7519,0.752,0.7534,0.7536,0.7539,0.7545,0.7547,0.7551,0.7557,0.7557,0.7547,0.7545,0.7544,0.7542,0.7558,0,0,0,0,0,0.7446,0.7452,0.7469,0.7469,0.7474,0.7488,0.7492,0.7501,0.7511,0.7514,0.7524,0.7532,0.7539,0.7542,0.7549,0.755,0.7553,0.755,0.7548,0.7547,0.7547,0.755,0.7549,0.756,0.756,0.756,0,0,0.7438,0.7449,0.7452,0.7466,0.7474,0.748,0.7491,0.7496,0.7501,0.7515,0.752,0.7527,0.7538,0.7541,0.7543,0.7546,0.7545,0.7547,0.7546,0.7546,0.7549,0.7548,0.7547,0.756,0.756,0.756,0,0,0.7425,0.7434,0.7437,0.7446,0.7459,0.7469,0.747,0.7485,0.7491,0.7497,0.7508,0.7513,0.7523,0.7531,0.7536,0.753,0.7538,0.7532,0.7525,0.7527,0.7526,0.7526,0.7525,0.7524,0.7532,0.7531,0.7531,0,0.7412,0.7422,0.7437,0.7442,0.7448,0.7463,0.7466,0.7474,0.7488,0.7492,0.7496,0.7511,0.7519,0.7525,0.7524,0.7527,0.7529,0.753,0.7526,0.7525,0.7525,0.7524,0.7523,0.7531,0.7531,0.7531,0.7531,0,0.7407,0.7414,0.7414,0.743,0.7436,0.744,0.7455,0.746,0.7468,0.7478,0.7485,0.7495,0.7505,0.7508,0.7515,0.7515,0.7517,0.7523,0.753,0.7523,0.7522,0.7522,0.753,0.753,0.753,0.753,0,0,0.738,0.7406,0.7406,0.7414,0.7431,0.7436,0.7442,0.7453,0.7458,0.7467,0.7473,0.7482,0.7489,0.7495,0.7504,0.7506,0.7503,0.7512,0.7513,0.7511,0.7505,0.7501,0.75,0.7508,0.7508,0.7508,0.7505,0,0.7371,0.7382,0.7396,0.7403,0.741,0.7426,0.7431,0.7442,0.7452,0.7459,0.747,0.7477,0.7484,0.7489,0.7492,0.7502,0.7502,0.7503,0.7513,0.7513,0.751,0.75,0.7495,0.7491,0.7505,0.7504,0.7504,0,0.736,0.7372,0.738,0.7399,0.7402,0.7406,0.7419,0.7426,0.744,0.7447,0.7455,0.7465,0.7472,0.7479,0.7489,0.7489,0.7494,0.75,0.7501,0.7502,0.7508,0.7501,0.749,0.7489,0.7504,0.7504,0.7504,0,0.7342,0.7359,0.7366,0.7373,0.7394,0.7397,0.7406,0.742,0.7427,0.7438,0.7443,0.7454,0.746,0.7469,0.7482,0.7485,0.7491,0.7498,0.7497,0.7497,0.7497,0.7497,0.7487,0.75,0.75,0.75,0.75,0,0.733,0.7334,0.7358,0.7363,0.7369,0.7386,0.7391,0.7401,0.7414,0.7421,0.7435,0.7441,0.7458,0.7466,0.7477,0.7484,0.7487,0.7493,0.7495,0.7492,0.7491,0.7495,0.7496,0.75,0.75,0.75,0.75,0,0.7309,0.7325,0.7335,0.7356,0.7361,0.7365,0.7383,0.7388,0.74,0.7409,0.7412,0.743,0.744,0.7455,0.7469,0.7477,0.7483,0.7487,0.7479,0.7481,0.748,0.748,0.7472,0.7472,0.7485,0.7485,0.7484,0,0.73,0.7304,0.7327,0.7333,0.7342,0.7352,0.736,0.7378,0.7385,0.7403,0.7406,0.7418,0.7429,0.7445,0.7459,0.7471,0.7476,0.7473,0.7478,0.7474,0.7477,0.7477,0.7478,0.7471,0.7471,0.7471,0.747,0,0.7283,0.7292,0.7303,0.7318,0.7327,0.7339,0.7352,0.7356,0.7377,0.7384,0.7397,0.7405,0.7422,0.7434,0.7449,0.7458,0.7468,0.7469,0.747,0.7466,0.7461,0.7465,0.7476,0.7469,0.7469,0.7469,0.7469,0.7469,0.7268,0.7274,0.7291,0.7304,0.7316,0.7328,0.7335,0.7349,0.736,0.7376,0.7385,0.7397,0.7413,0.7433,0.7442,0.7452,0.7456,0.7456,0.7457,0.7457,0.7456,0.746,0.7455,0.7455,0.7455,0.7455,0.7455,0,0.7253,0.7266,0.7278,0.7296,0.7307,0.7317,0.7332,0.734,0.7351,0.7365,0.7377,0.7392,0.7404,0.7421,0.7435,0.7439,0.7444,0.7442,0.7442,0.7444,0.7451,0.745,0.7438,0.7438,0.7438,0.7438,0.7438,0.7438,0.7246,0.7256,0.7268,0.7284,0.7297,0.731,0.7318,0.733,0.7342,0.7359,0.737,0.7381,0.7397,0.7412,0.7425,0.7429,0.7434,0.743,0.7436,0.7442,0.7444,0.7445,0.7444,0.7431,0.7431,0.7429,0.7429,0.7429]}]]